Simultaneous Nadir Overpasses (SNOs) Predictions

Prediction of SNOs between AQUA and NOAA-19 Satellite Orbit:

Table of predicted SNOs for the next 14.0 days since TLE Epoch: 10/23/2021
Index Date (AQUA) Time (AQUA) Lat,Lon (AQUA) SZA (AQUA ) Date (NOAA-19) Time (NOAA-19) Lat,Lon (NOAA-19) SZA (NOAA-19 ) Distance(km) Time Diff (sec)
1 10/24/2021 09:15:25 -78.34,-159.08 89.38 10/24/2021 09:14:52 -78.38,-159.11 89.34 3.70 33
2 10/24/2021 10:04:53 78.38, 8.37 90.68 10/24/2021 10:05:54 78.40, 8.26 90.69 3.20 61
3 10/26/2021 14:49:12 78.34, -62.50 91.37 10/26/2021 14:48:01 78.33, -62.58 91.39 2.01 71
4 10/26/2021 15:38:39 -78.38, 104.93 88.57 10/26/2021 15:38:58 -78.38, 104.95 88.57 0.60 19
5 10/28/2021 21:12:25 78.34,-158.30 92.13 10/28/2021 21:12:06 78.35,-158.43 92.15 3.21 19
6 10/28/2021 22:01:52 -78.38, 9.14 87.81 10/28/2021 22:03:04 -78.37, 9.01 87.82 2.95 72
7 10/31/2021 02:46:11 -78.34, -61.78 87.14 10/31/2021 02:45:11 -78.33, -61.73 87.14 2.12 60
8 10/31/2021 03:35:39 78.38, 105.66 92.93 10/31/2021 03:36:11 78.36, 105.70 92.89 3.10 32
9 11/02/2021 09:09:24 -78.35,-157.62 86.41 11/02/2021 09:09:16 -78.36,-157.47 86.40 3.28 8
10 11/04/2021 14:43:10 78.33, -60.93 94.26 11/04/2021 14:42:22 78.33, -60.86 94.27 1.70 48



Historial Predications of SNOs between AQUA and NOAA-19
